Regional Weather Roundup
Issued by NWS

Home | Current Version | Previous Version | Graphics & Text | Print | Product List | Glossary Off
Versions: 1 2 3 4 5 6 7 8 9 10 11 12 13 14 15 16 17 18 19 20 21 22 23 24 25 26 27 28 29 30 31 32 33 34 35 36 37 38 39 40 41 42 43 44 45 46 47 48 49 50

000
ASUS43 KTOP 030959
RWRKS

WEATHER ROUNDUP FOR KANSAS
NATIONAL WEATHER SERVICE GOODLAND KS
500 AM CDT WED JUN 03 2015

NOTE:  "FAIR" INDICATES FEW OR NO CLOUDS BELOW 12,000 FEET WITH NO
SIGNIFICANT WEATHER AND/OR OBSTRUCTIONS TO VISIBILITY.

KSZ001>006-013>018-027>032-041>047-031100-
NORTHWEST KANSAS

CITY           SKY/WX    TMP DP  RH WIND       PRES   REMARKS
GOODLAND       CLEAR     62  59  90 CALM      29.76S
HAYS           CLEAR     70  61  73 S12G20    29.78S
HILL CITY      CLEAR     69  62  78 S3        29.76F
RUSSELL        PTCLDY    70  65  84 S16       29.76F
$$

KSZ061>065-074>080-084>089-031100-
SOUTHWEST KANSAS

CITY           SKY/WX    TMP DP  RH WIND       PRES   REMARKS
DODGE CITY     CLEAR     67  60  78 S12       29.81F
ELKHART          N/A     63  56  78 S10         N/A
GARDEN CITY    CLEAR     63  60  90 SE12      29.78F
GREAT BEND     CLEAR     70  63  78 S15       29.80S
LIBERAL        CLEAR     66  59  77 S12       29.82F
$$

KSZ066>073-081>083-090>101-031100-
SOUTHEAST KANSAS

CITY           SKY/WX    TMP DP  RH WIND       PRES   REMARKS
CHANUTE        CLEAR     68  66  93 S12       29.91F
COFFEYVILLE    CLEAR     67  66  97 SE7       29.92S
HUTCHINSON     CLEAR     70  64  81 S10       29.84S
MEDICINE LODGE   N/A     69  65  86 SE9       29.84F
NEWTON         CLEAR     68  61  77 S12       29.88S
PARSONS        CLEAR     68  67  96 S6        29.93S
WICHITA INTL   PTCLDY    70  65  84 S14       29.85F
WICHITA JABRA  CLEAR     69  64  84 S12       29.86F
WINFIELD       CLEAR     69  64  84 S12       29.89F
$$

KSZ007>012-019>026-033>040-048>060-102>105-031100-
NORTHEAST KANSAS

CITY           SKY/WX    TMP DP  RH WIND       PRES   REMARKS
CONCORDIA      MOCLDY    70  66  87 NE5       29.85R
EMPORIA        CLEAR     67  65  93 S12       29.87F
LAWRENCE       MOCLDY    64  61  90 SE8       29.90F
MANHATTAN      PTCLDY    71  67  87 S6        29.83F
OLATHE IND     MOCLDY    66  62  87 S13       29.92S
OLATHE EXE     PTCLDY    64  61  90 S8        29.91F
SALINA         PTCLDY    72  65  78 S14       29.80F
TOPEKA BILLARD CLEAR     67  64  90 SE7       29.88F
TOPEKA FORBES  CLEAR     68  64  87 SE13      29.87F
$$



USA.gov is the U.S. government's official web portal to all federal, state and local government web resources and services.